704  
SXUS51 KOKX 180157  
OSOOKX  
NEW YORK CITY METROPOLITAN AREA WEATHER ROUNDUP  
NATIONAL WEATHER SERVICE NEW YORK NY  
900 PM EST SAT FEB 17 2018  
 
CITY SKY/WX TMP DP RH WIND PRES REMARKS  
CENTRAL PARK LGT SNOW 33 32 96 VRB3 30.13F VSB 3/4  
LAGUARDIA ARPT SNOW 33 31 92 NE7 30.12F VSB 1/2 WCI 27  
KENNEDY INTL LGT SNOW 32 32 100 NE8 30.13F VSB 3/4 WCI 25  
NEWARK LIBERTY LGT SNOW 33 31 92 NE7 30.11F VSB 3/4 WCI 27  
TETERBORO ARPT SNOW 33 32 96 E3 30.11F VSB 1/2  
BRONX BOT GARD N/A 32 32 100 CALM 30.15F  
BRONX LEHMAN C N/A 32 32 100 E5 N/A WCI 27  
QUEENS COLLEGE N/A 32 32 100 NE3 N/A  
BREEZY POINT N/A 32 N/A N/A NE8 N/A WCI 25  
BROOKLYN COLL N/A 34 32 93 NE5 N/A WCI 30  
STATEN ISLAND N/A 32 32 100 NE3 N/A  
 
>>>>>>>>>>>>>>>>>>>>>>>>>>>>>>>>> KEY <<<<<<<<<<<<<<<<<<<<<<<<<<<<<<<  
> SKY/WX - SKY CONDITION/PRESENT : R : WCI - WIND CHILL INDEX <  
> WEATHER : E : VSB - VISIBILITY IN MILES <  
> TMP - TEMPERATURE IN DEG F : M : HX - HEAT INDEX <  
> DP - DEW POINT TEMPERATURE : A : TC - TEMPERATURE IN <  
> RH - RELATIVE HUMIDITY : R : CELSIUS <  
> WIND - DIRECTION/SPEED (MPH) : K : VRB - VARIABLE WIND DIR <  
> PRES - PRESSURE (IN HG) : S : <  
>>>>>>>>>>>>>>>>>>>>>>>>>>>>>>>>> KEY <<<<<<<<<<<<<<<<<<<<<<<<<<<<<<<  
 
 
CLICK HERE TO GO TO PREVIOUS BULLETINS.

The Nexlab NY Page
The Nexlab NJ Page
The Nexlab CT Page Main Text Page